Regional Weather Roundup
Issued by NWS

Home | Current Version | Previous Version | Graphics & Text | Print | Product List | Glossary On
Versions: 1 2 3 4 5 6 7 8 9 10 11 12 13 14 15 16 17 18 19 20 21 22 23 24 25 26 27 28 29 30 31 32 33 34 35 36 37 38 39 40 41 42 43 44 45 46 47 48 49 50
954
ASUS44 KMEG 300510
RWRTN
TENNESSEE HOURLY STATE WEATHER ROUNDUP
NATIONAL WEATHER SERVICE MEMPHIS TN
1200 AM CDT SUN APR 30 2017

TNZ002-004-019-021-049-052-054-088>092-300600-
WEST TENNESSEE

CITY           SKY/WX    TMP DP  RH WIND       PRES   REMARKS
MEMPHIS INTL   CLOUDY    76  68  76 SE17G24   29.78F
NWS MEMPHIS      N/A     74 N/A N/A MISG        N/A
JACKSON        CLOUDY    78  65  63 S13G20    29.86F
DYERSBURG      CLOUDY    71  67  87 SE9       29.83F
SOMERVILLE     CLEAR     77  66  69 SE10G16   29.83F
UNION CITY     CLOUDY    68  66  94 E7        29.85F
BOLIVAR        PTCLDY    77  64  65 SE12G22   29.87F
HUNTINGDON     CLOUDY    77  66  69 S12G18    29.88F
LEXINGTON      MOCLDY    77  64  65 S8G17     29.91S
SAVANNAH       MOCLDY    77  66  69 S10G20    29.91F
$$

TNZ008-025-027-028-033-062-065-066-300600-
NORTH MIDDLE TENNESSEE

CITY           SKY/WX    TMP DP  RH WIND       PRES   REMARKS
NASHVILLE      PTCLDY    75  63  66 S10       29.98S
PORTLAND       CLEAR     72  64  78 S6        29.96S
CLARKSVILLE    CLEAR     75  63  66 S8        29.92F
SMYRNA         CLEAR     74  64  71 S5        29.99R
COOKEVILLE     CLEAR     72  66  83 S7G14     30.00F
GALLATIN       CLEAR     70  66  88 CALM      29.99S
CROSSVILLE     CLEAR     68  65  90 VRB5      30.08F
$$

TNZ061-075-076-078-094-096-097-300600-
SOUTH MIDDLE TENNESSEE

CITY           SKY/WX    TMP DP  RH WIND       PRES   REMARKS
FAYETTEVILLE   CLEAR     72  64  78 S6        30.00S
TULLAHOMA      CLEAR     73  61  64 SE6       30.02F
WINCHESTER     CLEAR     73  63  68 S3        30.03S
MCMINNVILLE    CLEAR     73  64  73 SW3       30.02S
COLUMBIA       MOCLDY    75  73  94 S5        29.96S
SHELBYVILLE    CLEAR     77  64  65 SE8       30.00S
$$

TNZ017-018-042-046-047-300600-
NORTHEAST TENNESSEE

CITY           SKY/WX    TMP DP  RH WIND       PRES   REMARKS
TRI CITIES     CLOUDY    75  62  64 S8        30.12S
ELIZABETHTON     N/A     68  63  83 CALM      30.12F
$$

TNZ012-013-036-069-073-074-300600-
CENTRAL EAST TENNESSEE

CITY           SKY/WX    TMP DP  RH WIND       PRES   REMARKS
KNOXVILLE      PTCLDY    75  62  64 S9        30.05F
OAK RIDGE      PTCLDY    73  65  75 CALM      30.06F
DOWNTOWN KNOXV CLEAR     68  63  83 CALM      30.05F
GATLINBURG     CLEAR     70  61  73 CALM      30.06S
MORRISTOWN     PTCLDY    72  63  73 CALM      30.08S
JACKSBORO      PTCLDY    75  64  69 CALM      30.09S
$$

TNZ083-085-099-300600-
SOUTHEAST TENNESSEE

CITY           SKY/WX    TMP DP  RH WIND       PRES   REMARKS
CHATTANOOGA    FOG       68  67  96 NW3       30.04F VSB 1/2
$$

SKY/WX REPORTED AS FAIR MEANS FEW OR NO CLOUDS BELOW
12 THOUSAND FEET.





USA.gov is the U.S. government's official web portal to all federal, state and local government web resources and services.